Tracking 19149 objects as of 22-Apr-2018
HD Live streaming from Space Station
objects crossing your sky now

FENGYUN 1C DEB

Track FENGYUN 1C DEB now!
10-day predictions


NORAD ID: 33650
Int'l Code: 1999-025DEK
Perigee: 843.0 km
Apogee: 1,088.0 km
Inclination: 99.1 °
Period: 104.2 minutes
Semi major axis: 7336 km
RCS: 0.0036 m2 (small)
Launch date: May 10, 1999
Source: People's Republic of China (PRC)
Launch site: Taiyaun Space Center, China (TSC)

Note: This is SATELLITE DEBRIS
aabbcc
Your satellite tracking list
Your tracking list is empty




NASA's NSSDC Master Catalog

Two Line Element Set (TLE):
1 33650U 99025DEK 18112.10174383  .00000179  00000-0  18645-3 0  9996
2 33650  99.0862 357.2725 0166983  26.9198 334.0499 13.81564135506574
Source of the keplerian elements: AFSPC